SCP
0 0 0 0 0 0 0 0 0 0 0 0 0 0 0 0 0 0 0 0 0 0 0 0 0 0 0 0 0 0 0 0 0 0 0 0 0 0 0 0 0 0 0
0 0 0 0 0 0 0 0 0 0 0 0 0 0 0 0 0 0 0 0 0 0 0 0 0 0 0 0 0 0 0 0 0 0 0 0 0 0 0 0 0 0 0
0 0 0 0 0 0 0 0 0 0 0 0 0 0 0 0 0 0 0 0 0 0 0 0 0 0 0 0 0 0 0 0 0 0 0 0 0 0 0 0 0 0 0
0 0 0 0 0 0 0 0 0 0 0 0 0 0 0 0 0 0 0 0 0 0 0 0 0 0 0 0 0 0 0 0 0 0 0 0 0 0 0 0 0 0 0
0 0 0 0 0 0 0 0 0 0 0 0 0 0 0 0 0 0 0 0 0 0 0 0 0 0 0 0 0 0 0 0 0 0 0 0 0 0 0 0 0 0 0
0 0 0 0 0 0 0 0 0 0 0 0 0 0 0 0 0 0 0 0 0 0 0 0 0 0 0 0 0 0 0 0 0 0 0 0 0 0 0 0 0 0 0
0 0 0 0 0 0 0 0 0 0 0 0 0 0 0 0 0 0 0 0 0 0 0 0 0 0 0 0 0 0 0 0 0 0 0 0 0 0 0 0 0 0 0
0 0 0 0 0 0 0 0 0 0 0 0 0 0 0 0 0 0 0 0 0 0 0 0 0 0 0 0 0 0 0 0 0 0 0 0 0 0 0 0 0 0 0
0 0 0 0 0 0 0 0 0 -0 -0 -0 -0 -0 -0 0 0 0 0 0 0 0 0 0 0 0 0 0 0 0 0 0 0 0 0 0 0 0 0 0 0 0 0
0 0 0 0 0 0 0 0 -0 -0 -0 -0 0 0 0 0 0 0 0 0 0 0 0 0 0 0 0 0 0 0 0 0 0 0 0 0 0 0 0 0 0 0 0
0 0 0 0 0 0 -0 -0 -0 0 0 0 0 0 0 0 0 0 0 0 0 0 0 0 0 0 0 0 0 0 0 0 0 0 0 0 0 0 0 0 0 0 0
0 0 0 0 0 0 0 0 0 0 0 0 0 0 0 0 0 0 0 0 0 0 0 0 0 0 0 0 0 0 0 0 0 0 0 0 0 0 0 0 0 0 0
0 0 0 0 0 0 0 0 0 0 0 0 0 0 0 0 0 0 0 0 0 0 0 0 0 0 0 0 -0 -0 -0 -0 -0 -0 0 0 0 0 0 0 0 0 0
0 0 0 0 0 0 0 0 0 0 0 0 0 0 0 0 0 0 0 0 0 0 -0 -0 -0 -0 -0 -0 -0 -0 -0 -0 -0 -0 -0 0 0 0 0 0 0 0 0
0 0 0 0 0 0 0 0 0 0 0 0 0 0 0 0 0 0 0 0 0 0 0 0 0 0 -0 -0 -0 -0 -0 -0 0 0 0 0 0 0 0 0 0 0 0
0 0 0 0 0 0 0 0 0 0 0 0 0 0 0 0 0 0 0 0 0 0 0 0 0 0 0 0 0 0 0 0 0 0 0 0 0 0 0 0 0 0 0
0 0 0 0 0 0 0 0 0 0 0 0 0 0 0 0 0 0 0 0 0 0 0 0 0 0 0 0 0 0 0 0 0 0 0 0 0 0 0 0 0 0 0
0 0 0 0 0 0 0 0 0 0 0 0 0 0 0 0 0 0 0 0 0 0 0 0 0 0 0 0 0 0 0 0 0 0 0 0 0 0 0 0 0 0 0
0 0 0 0 0 0 0 0 0 0 0 0 0 0 0 0 0 0 0 0 0 0 0 0 0 0 0 0 0 0 0 0 0 0 0 0 0 0 0 0 0 0 0
0 0 0 0 0 0 0 0 0 0 0 0 0 0 0 0 0 0 0 0 0 0 0 0 0 0 0 0 0 0 0 0 0 0 0 0 0 0 0 0 0 0 0
0 0 0 0 0 0 0 0 0 0 0 0 0 0 0 0 0 0 0 0 0 0 0 0 0 0 0 0 0 0 0 0 0 0 0 0 0 0 0 0 0 0 0
0 0 0 0 0 0 0 0 0 0 0 0 0 0 0 0 0 0 0 0 0 0 0 0 0 0 0 0 0 0 0 0 0 0 0 0 0 0 0 0 0 0 0
0 0 0 0 0 0 0 0 0 0 0 0 0 0 0 0 0 0 0 0 0 0 0 0 0 0 0 0 0 0 0 0 0 0 0 0 0 0 0 0 0 0 0
0 0 0 0 0 0 0 0 0 0 0 0 0 0 0 0 0 0 0 0 0 0 0 0 0 0 0 0 0 0 0 0 0 0 0 0 0 0 0 0 0 0 0
0 0 0 0 0 0 0 0 0 0 0 0 0 0 0 0 0 0 0 0 0 0 0 0 0 0 0 0 0 0 0 0 0 0 0 0 0 0 0 0 0 0 0
0 0 0 0 0 0 0 0 0 0 0 0 0 0 0 0 0 0 0 0 -0 -0 0 -0 0 0 0 0 0 0 0 0 0 0 0 0 0 0 0 0 0 0 0
Wind_Speed_500mb
29 28 29 30 30 27 24 23 17 14 3 8 13 16 17 18 11 14 21 24 24 24 26 30 36 42 48 51 52 53 57 60 58 60 65 69 70 69 67 65 60 57 52
29 33 36 38 43 43 42 38 36 31 26 18 12 7 8 16 19 13 16 21 23 25 26 28 30 36 44 48 52 54 59 61 61 64 66 60 69 79 77 74 72 67 62
32 34 37 41 42 46 46 45 43 40 37 32 24 17 9 8 12 13 16 19 21 24 27 26 30 36 38 41 47 52 57 62 63 66 59 22 34 48 57 74 79 76 71
30 31 35 37 41 44 39 39 40 39 38 32 28 23 24 20 18 9 3 7 15 24 27 30 34 35 39 44 45 44 50 59 64 66 71 78 74 36 29 37 48 67 74
26 28 31 32 34 34 32 34 33 33 33 31 30 28 26 25 19 14 11 10 10 10 13 21 26 33 39 40 40 44 48 54 60 65 68 72 79 88 83 72 64 62 55
24 24 26 25 28 29 29 31 32 33 30 28 27 26 23 23 18 21 22 23 22 18 15 19 24 26 28 32 42 46 48 52 59 61 64 73 76 73 77 86 91 92 83
22 20 19 18 22 24 25 27 26 26 24 21 20 22 22 23 25 26 25 22 24 26 29 29 28 29 28 30 36 40 45 51 54 60 66 68 76 81 84 84 84 84 81
20 16 12 11 13 14 16 18 14 12 12 15 19 18 19 22 24 28 28 28 27 28 29 30 31 31 32 33 33 33 36 45 52 60 65 68 71 74 77 81 83 89 87
20 17 10 4 2 4 4 5 6 9 12 12 12 14 17 18 21 23 26 31 30 29 29 32 34 37 37 37 39 40 38 38 41 48 58 64 71 72 74 77 76 81 77
20 15 13 10 8 4 0 5 9 11 11 9 12 16 18 21 23 26 27 31 37 39 41 43 45 47 47 46 44 46 47 49 46 46 47 49 59 70 73 73 75 78 84
25 26 24 22 18 10 3 2 4 6 8 13 17 19 21 23 26 28 32 34 38 42 44 47 50 53 56 59 60 58 57 59 61 57 57 54 50 53 63 73 75 79 79
29 34 33 28 21 15 11 8 6 6 9 14 17 21 26 30 35 38 41 44 46 48 52 55 60 63 68 72 75 76 75 75 74 71 70 71 65 63 57 59 68 78 82
42 41 38 34 27 20 17 14 10 10 13 19 24 29 35 41 46 51 54 56 59 62 65 68 72 76 79 83 84 86 88 90 90 87 83 82 78 80 74 68 68 68 70
52 46 39 36 32 27 23 20 17 13 15 21 27 32 38 42 47 52 56 59 64 71 78 85 93 96 99 97 96 94 94 97 99 99 98 97 93 90 85 80 78 75 73
40 50 44 41 37 32 28 27 23 22 26 29 33 38 43 47 52 56 59 63 69 76 84 92 98 102 105 106 103 96 96 99 103 105 108 108 105 104 100 96 93 83 81
39 46 40 41 41 34 32 32 34 35 35 36 38 43 48 55 59 62 66 74 83 92 98 100 103 107 108 106 104 95 97 103 108 114 114 112 115 114 110 102 102 95 87
21 33 44 45 44 40 39 42 41 42 42 43 44 46 53 59 60 65 74 82 89 93 99 103 104 107 109 109 107 88 87 103 110 115 119 122 122 118 112 100 85 90 96
24 24 27 34 42 47 51 52 49 46 45 44 46 52 57 59 64 73 79 83 88 93 97 102 104 108 109 103 97 86 89 102 108 108 110 111 119 117 99 95 94 92 101
17 25 33 38 41 47 55 50 48 47 46 49 53 58 58 64 71 75 81 86 91 94 97 100 102 102 101 89 80 69 76 85 91 87 87 86 92 89 79 83 94 98 112
32 38 41 41 42 43 47 47 46 44 46 49 52 56 62 70 73 78 82 84 88 94 96 99 97 94 92 80 71 59 64 74 79 81 74 70 71 75 73 76 87 100 114
35 39 42 42 42 44 45 46 45 45 48 52 55 59 64 68 73 77 78 83 87 90 92 94 91 85 76 69 62 55 59 70 80 85 86 81 76 78 80 77 83 98 92
39 39 42 45 47 46 45 47 48 50 52 53 57 61 63 66 69 74 76 79 82 86 88 89 86 74 69 68 65 57 59 63 76 89 93 92 81 77 78 78 81 89 84
40 40 47 49 48 47 46 49 52 52 52 54 60 61 62 64 66 70 73 76 77 78 82 80 77 84 85 83 77 66 66 65 76 88 92 84 87 87 87 89 92 89 97
45 43 51 52 50 49 49 49 52 53 52 59 61 61 64 65 65 66 67 71 71 73 78 75 84 86 79 74 74 77 83 88 85 91 103 104 98 87 90 90 86 84 86
49 52 54 55 52 51 49 50 52 50 53 58 60 61 63 64 65 64 63 64 62 65 67 71 76 82 85 80 72 76 81 88 89 90 96 97 96 101 94 89 78 79 80
50 54 54 53 51 51 49 50 51 51 54 58 60 59 60 62 61 64 67 52 54 59 56 57 59 66 68 68 70 73 73 76 79 86 89 86 85 85 91 87 82 78 73
Wind_Direction_500mb
90 84 78 72 71 73 76 70 72 81 132 225 218 213 206 200 219 263 272 272 275 278 282 282 278 277 277 274 277 273 269 265 263 260 257 255 253 252 251 251 254 255 256
100 94 90 83 78 75 74 74 70 68 70 75 88 134 197 212 210 248 275 283 278 277 274 278 282 282 282 280 278 274 273 270 265 258 257 258 258 254 253 253 254 255 255
107 97 94 89 88 80 73 74 74 73 67 64 71 85 109 148 200 229 257 269 279 283 276 274 270 270 273 277 279 277 277 277 273 266 252 249 249 265 260 254 253 253 253
110 99 92 88 83 77 75 75 72 69 70 72 75 76 80 87 92 95 48 297 278 272 268 266 265 265 268 274 275 277 275 274 273 272 265 255 255 275 284 274 264 256 253
108 97 90 83 79 79 69 66 66 67 64 62 60 56 54 55 50 41 16 7 348 324 300 290 283 271 265 271 272 270 272 273 274 270 270 269 264 260 264 274 273 274 273
111 96 86 84 77 71 65 58 51 51 47 44 47 51 57 62 57 52 37 31 24 12 347 322 313 308 298 289 274 269 268 267 269 270 269 266 264 263 265 268 272 274 274
133 117 98 83 70 63 59 55 50 48 41 37 40 43 41 36 32 35 32 27 24 21 17 10 2 351 336 315 298 290 280 270 269 269 267 267 266 266 266 267 271 274 274
151 137 126 93 70 63 60 55 46 52 59 53 45 44 44 42 38 36 27 21 20 17 11 6 1 356 350 348 343 324 302 289 281 274 267 265 267 269 268 267 268 271 273
173 173 159 131 94 70 57 61 78 74 53 45 48 39 34 29 28 23 14 7 0 359 355 349 345 343 340 338 335 333 330 324 312 296 286 277 270 266 268 269 266 267 269
189 206 215 234 249 240 284 68 70 57 59 54 34 22 14 8 1 354 347 344 339 337 336 335 333 331 332 329 325 322 320 317 315 314 312 301 286 275 270 269 269 264 266
219 222 226 223 228 231 264 348 16 19 7 357 354 351 347 347 342 339 335 332 330 328 328 326 324 322 322 321 320 318 316 312 309 308 306 304 303 296 285 275 270 268 266
236 224 223 219 222 228 236 236 234 266 315 332 335 334 333 332 331 331 330 327 322 322 321 319 318 316 314 313 313 312 310 308 305 303 300 298 298 295 293 291 286 275 269
228 219 215 224 226 230 237 242 256 292 324 333 331 327 324 323 324 326 326 324 322 320 318 316 313 311 309 307 306 306 305 302 301 298 295 292 292 290 291 289 289 289 285
232 218 218 219 224 231 237 240 248 266 298 313 315 314 312 310 312 313 313 313 314 314 313 313 311 310 309 306 304 303 300 297 295 294 292 290 287 285 285 284 284 284 285
229 224 222 219 226 236 244 247 247 267 291 302 304 303 305 307 309 309 308 309 309 309 308 307 305 304 304 305 307 306 302 297 292 289 288 287 286 284 282 281 279 279 278
229 221 228 230 230 241 250 255 256 262 273 280 288 293 297 303 306 307 308 310 311 310 308 307 306 304 303 303 302 301 297 293 291 289 287 284 284 283 282 280 277 275 272
224 231 234 237 238 248 259 254 250 254 255 268 281 288 296 301 302 305 307 308 308 308 307 306 306 304 303 301 300 299 291 288 286 285 285 284 282 281 281 280 275 271 268
232 240 249 250 248 248 241 234 241 250 263 276 284 292 298 299 303 307 309 309 309 309 308 308 306 304 303 303 300 297 291 287 285 284 281 279 280 279 281 279 271 267 269
252 270 266 260 260 250 239 236 244 256 268 279 289 295 299 304 309 311 312 313 312 311 311 309 309 309 308 309 306 300 294 291 290 289 289 289 288 286 282 277 274 273 262
277 272 270 266 259 245 235 245 254 265 277 286 293 298 305 309 312 314 314 314 313 313 313 312 314 312 308 309 307 300 295 295 297 297 293 292 289 287 284 279 278 274 265
283 272 268 258 249 242 247 254 265 278 288 293 296 302 308 311 314 314 315 316 316 315 315 317 313 308 311 315 314 300 295 293 296 299 299 295 294 291 287 280 275 270 275
278 272 263 252 244 246 257 268 276 284 290 292 300 308 311 314 315 314 316 317 318 318 321 315 312 316 322 324 320 303 296 295 293 292 293 297 296 292 289 287 282 274 272
270 268 260 246 246 252 262 273 280 286 290 297 305 310 312 314 317 317 318 318 322 325 319 314 319 327 329 325 322 307 300 296 296 296 297 294 294 293 288 283 279 277 271
271 261 255 244 251 262 271 277 281 285 291 301 307 311 313 317 317 317 320 322 327 325 317 322 322 319 312 309 309 313 315 312 304 299 300 301 297 287 282 281 278 276 275
267 264 251 250 258 267 272 277 280 284 293 301 307 311 314 315 316 318 323 326 330 325 317 310 308 310 308 311 312 309 307 305 302 300 297 294 292 289 284 282 274 272 276
268 257 253 258 266 270 275 278 279 286 296 302 306 309 312 313 317 319 320 326 330 328 318 305 304 306 305 309 311 309 308 307 306 302 298 296 291 288 284 276 270 277 270
Wind_Speed_850mb
29 28 29 30 30 27 24 23 17 14 3 8 13 16 17 18 11 14 21 24 24 24 26 30 36 42 48 51 52 53 57 60 58 60 65 69 70 69 67 65 60 57 52
29 33 36 38 43 43 42 38 36 31 26 18 12 7 8 16 19 13 16 21 23 25 26 28 30 36 44 48 52 54 59 61 61 64 66 60 69 79 77 74 72 67 62
32 34 37 41 42 46 46 45 43 40 37 32 24 17 9 8 12 13 16 19 21 24 27 26 30 36 38 41 47 52 57 62 63 66 59 22 34 48 57 74 79 76 71
30 31 35 37 41 44 39 39 40 39 38 32 28 23 24 20 18 9 3 7 15 24 27 30 34 35 39 44 45 44 50 59 64 66 71 78 74 36 29 37 48 67 74
26 28 31 32 34 34 32 34 33 33 33 31 30 28 26 25 19 14 11 10 10 10 13 21 26 33 39 40 40 44 48 54 60 65 68 72 79 88 83 72 64 62 55
24 24 26 25 28 29 29 31 32 33 30 28 27 26 23 23 18 21 22 23 22 18 15 19 24 26 28 32 42 46 48 52 59 61 64 73 76 73 77 86 91 92 83
22 20 19 18 22 24 25 27 26 26 24 21 20 22 22 23 25 26 25 22 24 26 29 29 28 29 28 30 36 40 45 51 54 60 66 68 76 81 84 84 84 84 81
20 16 12 11 13 14 16 18 14 12 12 15 19 18 19 22 24 28 28 28 27 28 29 30 31 31 32 33 33 33 36 45 52 60 65 68 71 74 77 81 83 89 87
20 17 10 4 2 4 4 5 6 9 12 12 12 14 17 18 21 23 26 31 30 29 29 32 34 37 37 37 39 40 38 38 41 48 58 64 71 72 74 77 76 81 77
20 15 13 10 8 4 0 5 9 11 11 9 12 16 18 21 23 26 27 31 37 39 41 43 45 47 47 46 44 46 47 49 46 46 47 49 59 70 73 73 75 78 84
25 26 24 22 18 10 3 2 4 6 8 13 17 19 21 23 26 28 32 34 38 42 44 47 50 53 56 59 60 58 57 59 61 57 57 54 50 53 63 73 75 79 79
29 34 33 28 21 15 11 8 6 6 9 14 17 21 26 30 35 38 41 44 46 48 52 55 60 63 68 72 75 76 75 75 74 71 70 71 65 63 57 59 68 78 82
42 41 38 34 27 20 17 14 10 10 13 19 24 29 35 41 46 51 54 56 59 62 65 68 72 76 79 83 84 86 88 90 90 87 83 82 78 80 74 68 68 68 70
52 46 39 36 32 27 23 20 17 13 15 21 27 32 38 42 47 52 56 59 64 71 78 85 93 96 99 97 96 94 94 97 99 99 98 97 93 90 85 80 78 75 73
40 50 44 41 37 32 28 27 23 22 26 29 33 38 43 47 52 56 59 63 69 76 84 92 98 102 105 106 103 96 96 99 103 105 108 108 105 104 100 96 93 83 81
39 46 40 41 41 34 32 32 34 35 35 36 38 43 48 55 59 62 66 74 83 92 98 100 103 107 108 106 104 95 97 103 108 114 114 112 115 114 110 102 102 95 87
21 33 44 45 44 40 39 42 41 42 42 43 44 46 53 59 60 65 74 82 89 93 99 103 104 107 109 109 107 88 87 103 110 115 119 122 122 118 112 100 85 90 96
24 24 27 34 42 47 51 52 49 46 45 44 46 52 57 59 64 73 79 83 88 93 97 102 104 108 109 103 97 86 89 102 108 108 110 111 119 117 99 95 94 92 101
17 25 33 38 41 47 55 50 48 47 46 49 53 58 58 64 71 75 81 86 91 94 97 100 102 102 101 89 80 69 76 85 91 87 87 86 92 89 79 83 94 98 112
32 38 41 41 42 43 47 47 46 44 46 49 52 56 62 70 73 78 82 84 88 94 96 99 97 94 92 80 71 59 64 74 79 81 74 70 71 75 73 76 87 100 114
35 39 42 42 42 44 45 46 45 45 48 52 55 59 64 68 73 77 78 83 87 90 92 94 91 85 76 69 62 55 59 70 80 85 86 81 76 78 80 77 83 98 92
39 39 42 45 47 46 45 47 48 50 52 53 57 61 63 66 69 74 76 79 82 86 88 89 86 74 69 68 65 57 59 63 76 89 93 92 81 77 78 78 81 89 84
40 40 47 49 48 47 46 49 52 52 52 54 60 61 62 64 66 70 73 76 77 78 82 80 77 84 85 83 77 66 66 65 76 88 92 84 87 87 87 89 92 89 97
45 43 51 52 50 49 49 49 52 53 52 59 61 61 64 65 65 66 67 71 71 73 78 75 84 86 79 74 74 77 83 88 85 91 103 104 98 87 90 90 86 84 86
49 52 54 55 52 51 49 50 52 50 53 58 60 61 63 64 65 64 63 64 62 65 67 71 76 82 85 80 72 76 81 88 89 90 96 97 96 101 94 89 78 79 80
50 54 54 53 51 51 49 50 51 51 54 58 60 59 60 62 61 64 67 52 54 59 56 57 59 66 68 68 70 73 73 76 79 86 89 86 85 85 91 87 82 78 73
Wind_Direction_850mb
90 84 78 72 71 73 76 70 72 81 132 225 218 213 206 200 219 263 272 272 275 278 282 282 278 277 277 274 277 273 269 265 263 260 257 255 253 252 251 251 254 255 256
100 94 90 83 78 75 74 74 70 68 70 75 88 134 197 212 210 248 275 283 278 277 274 278 282 282 282 280 278 274 273 270 265 258 257 258 258 254 253 253 254 255 255
107 97 94 89 88 80 73 74 74 73 67 64 71 85 109 148 200 229 257 269 279 283 276 274 270 270 273 277 279 277 277 277 273 266 252 249 249 265 260 254 253 253 253
110 99 92 88 83 77 75 75 72 69 70 72 75 76 80 87 92 95 48 297 278 272 268 266 265 265 268 274 275 277 275 274 273 272 265 255 255 275 284 274 264 256 253
108 97 90 83 79 79 69 66 66 67 64 62 60 56 54 55 50 41 16 7 348 324 300 290 283 271 265 271 272 270 272 273 274 270 270 269 264 260 264 274 273 274 273
111 96 86 84 77 71 65 58 51 51 47 44 47 51 57 62 57 52 37 31 24 12 347 322 313 308 298 289 274 269 268 267 269 270 269 266 264 263 265 268 272 274 274
133 117 98 83 70 63 59 55 50 48 41 37 40 43 41 36 32 35 32 27 24 21 17 10 2 351 336 315 298 290 280 270 269 269 267 267 266 266 266 267 271 274 274
151 137 126 93 70 63 60 55 46 52 59 53 45 44 44 42 38 36 27 21 20 17 11 6 1 356 350 348 343 324 302 289 281 274 267 265 267 269 268 267 268 271 273
173 173 159 131 94 70 57 61 78 74 53 45 48 39 34 29 28 23 14 7 0 359 355 349 345 343 340 338 335 333 330 324 312 296 286 277 270 266 268 269 266 267 269
189 206 215 234 249 240 284 68 70 57 59 54 34 22 14 8 1 354 347 344 339 337 336 335 333 331 332 329 325 322 320 317 315 314 312 301 286 275 270 269 269 264 266
219 222 226 223 228 231 264 348 16 19 7 357 354 351 347 347 342 339 335 332 330 328 328 326 324 322 322 321 320 318 316 312 309 308 306 304 303 296 285 275 270 268 266
236 224 223 219 222 228 236 236 234 266 315 332 335 334 333 332 331 331 330 327 322 322 321 319 318 316 314 313 313 312 310 308 305 303 300 298 298 295 293 291 286 275 269
228 219 215 224 226 230 237 242 256 292 324 333 331 327 324 323 324 326 326 324 322 320 318 316 313 311 309 307 306 306 305 302 301 298 295 292 292 290 291 289 289 289 285
232 218 218 219 224 231 237 240 248 266 298 313 315 314 312 310 312 313 313 313 314 314 313 313 311 310 309 306 304 303 300 297 295 294 292 290 287 285 285 284 284 284 285
229 224 222 219 226 236 244 247 247 267 291 302 304 303 305 307 309 309 308 309 309 309 308 307 305 304 304 305 307 306 302 297 292 289 288 287 286 284 282 281 279 279 278
229 221 228 230 230 241 250 255 256 262 273 280 288 293 297 303 306 307 308 310 311 310 308 307 306 304 303 303 302 301 297 293 291 289 287 284 284 283 282 280 277 275 272
224 231 234 237 238 248 259 254 250 254 255 268 281 288 296 301 302 305 307 308 308 308 307 306 306 304 303 301 300 299 291 288 286 285 285 284 282 281 281 280 275 271 268
232 240 249 250 248 248 241 234 241 250 263 276 284 292 298 299 303 307 309 309 309 309 308 308 306 304 303 303 300 297 291 287 285 284 281 279 280 279 281 279 271 267 269
252 270 266 260 260 250 239 236 244 256 268 279 289 295 299 304 309 311 312 313 312 311 311 309 309 309 308 309 306 300 294 291 290 289 289 289 288 286 282 277 274 273 262
277 272 270 266 259 245 235 245 254 265 277 286 293 298 305 309 312 314 314 314 313 313 313 312 314 312 308 309 307 300 295 295 297 297 293 292 289 287 284 279 278 274 265
283 272 268 258 249 242 247 254 265 278 288 293 296 302 308 311 314 314 315 316 316 315 315 317 313 308 311 315 314 300 295 293 296 299 299 295 294 291 287 280 275 270 275
278 272 263 252 244 246 257 268 276 284 290 292 300 308 311 314 315 314 316 317 318 318 321 315 312 316 322 324 320 303 296 295 293 292 293 297 296 292 289 287 282 274 272
270 268 260 246 246 252 262 273 280 286 290 297 305 310 312 314 317 317 318 318 322 325 319 314 319 327 329 325 322 307 300 296 296 296 297 294 294 293 288 283 279 277 271
271 261 255 244 251 262 271 277 281 285 291 301 307 311 313 317 317 317 320 322 327 325 317 322 322 319 312 309 309 313 315 312 304 299 300 301 297 287 282 281 278 276 275
267 264 251 250 258 267 272 277 280 284 293 301 307 311 314 315 316 318 323 326 330 325 317 310 308 310 308 311 312 309 307 305 302 300 297 294 292 289 284 282 274 272 276
268 257 253 258 266 270 275 278 279 286 296 302 306 309 312 313 317 319 320 326 330 328 318 305 304 306 305 309 311 309 308 307 306 302 298 296 291 288 284 276 270 277 270